Flag for U.S.A. Weather past 2 weeks in Spartanburg, South Carolina, U.S.A.

Now
N/A

Scattered clouds.


Feels Like: N/A
Forecast: 62 / 76 °F
Wind: 6 mph from South

Location: Spartanburg Memorial

Current Time: Apr 19, 2015 at 9:10:05 PM

Latest Report: Apr 19, 2015 at 8:35 PM


Visibility: 10 mi

Pressure: 29.72 "Hg

Humidity: N/A

Dew point: N/A

Location of SpartanburgLocation

Historic Weather in Spartanburg — Graph

°F

Spartanburg temperature yesterday

Maximum temperature yesterday: 79 °F (at 1:55 PM)
Minimum temperature yesterday: 63 °F (at 12:35 AM)
Average temperature yesterday: 69 °F

Past Weeks' High & Low Weather Summary

 TemperatureHumidityPressure
High90 °F (Apr 9, 4:35 PM)100% (Apr 6, 10:35 PM)30.39 "Hg (Apr 6, 10:35 PM)
Low39 °F (Apr 5, 5:15 AM)12% (Apr 11, 4:15 PM)29.71 "Hg (Apr 19, 7:15 PM)
Average65 °F76%30.13 "Hg
* Reported Apr 4 7:15 PM — Apr 19 7:55 PM, Spartanburg, Weather by CustomWeather, © 2015

Note: Actual official high and low records may vary slightly from our data, if they occured in-between our weather recording intervals... More about our weather records

Advertising

Spartanburg weather history for previous 24 hours

 ConditionsComfort  
Time TempWeatherWind HumidityBarometerVisibility
7:55 PM
Sun, Apr 19
N/ASunny.3 mphN/A29.72 "Hg10 mi
7:35 PMN/AScattered clouds.3 mphN/A29.71 "Hg10 mi
7:15 PMN/ASunny.5 mphN/A29.71 "Hg10 mi
6:55 PMN/AScattered clouds.6 mphN/A29.72 "Hg10 mi
6:35 PMN/AScattered clouds.7 mphN/A29.75 "Hg10 mi
6:15 PMN/AScattered clouds.10 mphN/A29.75 "Hg10 mi
5:55 PMN/ALight rain.5 mphN/A29.75 "Hg10 mi
5:35 PMN/ALight rain.6 mphN/A29.74 "Hg10 mi
5:15 PMN/AHeavy rain.No windN/A29.75 "Hg2 mi
4:55 PMN/ALight rain.5 mphN/A29.76 "Hg7 mi
4:35 PMN/ARain.6 mphN/A29.77 "Hg4 mi
4:15 PMN/ALight rain.3 mphN/A29.77 "Hg10 mi
3:55 PMN/ALight rain.No windN/A29.79 "Hg10 mi
3:35 PMN/ALight rain.No windN/A29.80 "Hg7 mi
3:15 PMN/AThundershowers.3 mphN/A29.82 "Hg4 mi
2:55 PMN/AHeavy rain.10 mphN/A29.82 "Hg2 mi
2:35 PMN/ARain.7 mphN/A29.84 "Hg3 mi
2:15 PMN/ADrizzle.7 mphN/A29.84 "Hg2 mi
1:55 PMN/APartly sunny.8 mphN/A29.85 "Hg10 mi
1:35 PMN/ABroken clouds.8 mphN/A29.86 "Hg10 mi
1:15 PMN/AScattered clouds.9 mphN/A29.87 "Hg10 mi
12:55 PMN/APartly sunny.10 mphN/A29.87 "Hg10 mi
12:35 PMN/APartly sunny.8 mphN/A29.87 "Hg10 mi
12:15 PMN/ALight rain.6 mphN/A29.88 "Hg10 mi
11:55 AMN/ARain.9 mphN/A29.89 "Hg10 mi
11:35 AM68 °FPartly sunny.5 mph100%29.89 "Hg10 mi
11:15 AM68 °FScattered clouds.3 mph100%29.89 "Hg10 mi
10:55 AM68 °FScattered clouds.7 mph100%29.89 "Hg10 mi
10:35 AM68 °FLight rain. Cloudy.5 mph100%29.89 "Hg7 mi
10:15 AM68 °FRain. Cloudy.3 mph100%29.90 "Hg2 mi
9:55 AM68 °FHeavy rain. Cloudy.3 mph100%29.89 "Hg1 mi
9:35 AM68 °FHeavy rain. Mostly cloudy.No wind100%29.90 "Hg1 mi
9:15 AM68 °FHeavy rain. Low clouds.3 mph100%29.90 "Hg1 mi
8:55 AM68 °FRain. Low clouds.6 mph100%29.90 "Hg1 mi
8:35 AM66 °FDrizzle. Low clouds.3 mph100%29.90 "Hg1 mi
8:15 AM66 °FDrizzle. Low clouds.5 mph100%29.91 "Hg1 mi
7:55 AM66 °FDrizzle. Low clouds.No wind100%29.92 "Hg2 mi
7:35 AM66 °FLight rain. Low clouds.3 mph100%29.93 "Hg2 mi
7:15 AMN/ALight rain.No windN/A29.93 "Hg1 mi
6:55 AMN/ARain.No windN/A29.92 "Hg1 mi
6:35 AMN/AFog.3 mphN/A29.92 "Hg1 mi
6:15 AMN/APassing clouds.No windN/A29.92 "Hg5 mi
5:55 AMN/APassing clouds.3 mphN/A29.91 "Hg7 mi
5:35 AMN/APassing clouds.3 mphN/A29.92 "Hg7 mi
5:15 AMN/ARain.3 mphN/A29.92 "Hg5 mi
4:55 AMN/APassing clouds.No windN/A29.92 "Hg10 mi
4:35 AMN/APassing clouds.No windN/A29.93 "Hg10 mi
4:15 AMN/ARain.No windN/A29.94 "Hg4 mi
3:55 AMN/AHeavy rain.No windN/A29.93 "Hg4 mi
3:35 AMN/APassing clouds.No windN/A29.94 "Hg10 mi
3:15 AMN/APassing clouds.No windN/A29.94 "Hg10 mi
2:55 AMN/APassing clouds.No windN/A29.95 "Hg10 mi
2:35 AMN/AClear.No windN/A29.96 "Hg10 mi
2:15 AMN/APassing clouds.No windN/A29.96 "Hg10 mi
1:55 AMN/AClear.No windN/A29.97 "Hg10 mi
1:35 AMN/AClear.No windN/A29.97 "Hg10 mi
1:15 AMN/AClear.No windN/A29.97 "Hg10 mi
12:55 AMN/AClear.No windN/A29.98 "Hg10 mi
12:35 AMN/AClear.No windN/A29.98 "Hg10 mi
12:15 AMN/AClear.3 mphN/A29.98 "Hg10 mi
11:55 PM
Sat, Apr 18
N/AClear.No windN/A29.98 "Hg10 mi
11:35 PMN/AClear.No windN/A29.99 "Hg10 mi
11:15 PMN/AClear.No windN/A29.99 "Hg10 mi
10:55 PM66 °FPassing clouds.No wind100%29.99 "Hg10 mi
10:35 PM68 °FPassing clouds.No wind100%29.99 "Hg10 mi
10:15 PM68 °FPassing clouds.No wind100%30.00 "Hg10 mi
9:55 PM68 °FPassing clouds.No wind100%29.99 "Hg10 mi
9:35 PM68 °FPassing clouds.No wind100%30.00 "Hg10 mi
Weather by CustomWeather, © 2015

See weather overviewHow to use our weather pages